Location: Larrial
(48.2758°N, 4.5331°W)
Time: 16:25:16
(UTC+00:00)

AAUSAT CUBESAT 2 - Pass Details

Date: 28 November 2021
Orbit: 572 x 586 km, 97.5° (Epoch: 16 January)

Event Time Altitude Azimuth Distance (km) Brightness Sun altitude
Rises 06:33:48 0° 2° (N) 2,794 ? -11.4°
Reaches altitude 10° 06:36:14 10° 349° (N) 1,892 ? -11.0°
Maximum altitude 06:39:34 25° 295° (WNW) 1,196 ? -10.5°
Drops below altitude 10° 06:42:53 10° 240° (WSW) 1,886 ? -9.9°
Sets 06:45:19 0° 227° (SW) 2,782 ? -9.6°
